[[{"header":{"parameterUnit":"m.s-1","parameterCategory":1,"la1":30.2991,"la2":30.254,"lo1":-89.0895,"lo2":-89.0444,"dy":0.0017,"dx":0.0017,"nx":28,"ny":28,"refTime":"2025-05-26T09:00:00:Z","depth":0,"parameterNumber":2,"parameterNumberName":"U-component_of_WINDS"},"data":[0,0,0,0,0,0,0,0,0,0,0,0,0,0,0,0,0,0,0,0,0,0,0,0,0,0,0,0,0,0,0,0,0,0,0,0,0,0,0,0,0,0,0,0,0,0,0,0,0,0,0,0,0,0,0,0,0,0,-1.244,-1.2435,0,-1.2002,-1.1997,-1.1992,-1.1732,-1.1731,-1.173,-1.1729,-1.1278,-1.1268,-1.1257,0,0,0,0,0,0,0,0,0,0,0,0,0,-1.3044,-1.3034,-1.244,-1.2435,-1.2429,-1.2003,-1.1997,-1.1991,-1.1732,-1.1731,-1.173,-1.1728,-1.1282,-1.1269,-1.1256,0,0,0,0,0,0,0,0,0,0,0,0,0,-1.2712,-1.3031,-1.2441,-1.2249,-1.2227,-1.2004,-1.1997,-1.199,-1.1733,-1.1731,-1.1729,-1.1728,-1.1286,-1.127,-1.1254,-1.1188,0,0,-1.1204,-1.1197,0,0,0,0,0,0,0,0,-1.2731,-1.269,-1.2282,-1.2262,-1.2237,-1.192,-1.2044,-1.1721,-1.1733,-1.1921,-1.1729,-1.1727,-1.1493,-1.146,-1.1381,-1.1167,-1.1147,-1.1203,-1.1193,-1.1186,-1.1181,0,0,0,0,0,0,0,-1.2754,-1.2707,-1.2267,-1.2277,-1.2249,-1.2182,-1.2133,-1.1982,-1.1722,-1.1904,-1.1884,-1.1836,-1.148,-1.1398,-1.1369,-1.1141,-1.1203,-1.1189,-1.1178,-1.1172,-1.0843,-1.0844,0,0,0,0,0,0,-1.2809,-1.2728,-1.2281,-1.2254,-1.2485,-1.2173,-1.2118,-1.2024,-1.1723,-1.1675,-1.1838,-1.1826,-1.1427,-1.1388,-1.1352,-1.125,-1.1186,-1.117,-1.1161,-1.0842,-1.0843,-1.0844,0,0,0,0,0,0,-1.2823,-1.2771,-1.2298,-1.2485,-1.242,-1.2164,-1.2061,-1.2016,-1.1933,-1.1673,-1.1625,-1.1802,-1.1424,-1.1375,-1.1229,-1.1232,-1.1163,-1.1148,-1.0841,-1.0842,-1.0844,-1.1051,0,0,0,0,0,0,-1.2841,-1.2778,-1.2752,-1.2487,-1.2411,-1.2186,-1.2061,-1.2009,-1.1906,-1.1885,-1.1626,-1.1581,-1.1419,-1.1255,-1.1213,-1.1208,-1.1135,-1.0839,-1.0841,-1.0843,-1.1043,-1.106,-1.1074,0,0,0,0,0,-1.2864,-1.2829,-1.2752,-1.27,-1.2374,-1.2187,-1.2143,-1.1957,-1.1907,-1.1877,-1.1709,-1.159,-1.1238,-1.1243,-1.1193,-1.1183,-1.0838,-1.0841,-1.0843,-1.1036,-1.1056,-1.1074,0,0,0,0,0,0,-1.3101,-1.2791,-1.2703,-1.2581,-1.2412,-1.2143,-1.2101,-1.1985,-1.1827,-1.1814,-1.1589,-1.1532,-1.1408,-1.128,-1.1291,-1.1099,-1.1024,-1.1017,-1.1188,-1.1205,-1.1221,-1.1254,-1.1122,0,0,0,0,0,-1.314,-1.3016,-1.275,-1.2668,-1.2588,-1.236,-1.2271,-1.2142,-1.1957,-1.1885,-1.1706,-1.1531,-1.1379,-1.1285,-1.1132,-1.1023,-1.096,-1.0991,-1.1006,-1.102,-1.1017,-1.0944,-1.0954,-1.0852,-1.0852,-1.0852,0,0,-1.3218,-1.3032,-1.2968,-1.2711,-1.2565,-1.2439,-1.2301,-1.2175,-1.2077,-1.1865,-1.1716,-1.1579,-1.1367,-1.1239,-1.1173,-1.1128,-1.103,-1.1023,-1.1037,-1.1024,-1.0948,-1.0958,-1.0967,-1.0854,-1.0854,-1.0854,0,0,-1.3295,-1.3144,-1.3057,-1.2913,-1.2693,-1.254,-1.252,-1.2266,-1.2167,-1.2014,-1.185,-1.173,-1.1477,-1.1331,-1.1225,-1.1241,-1.1124,-1.1198,-1.1279,-1.1211,-1.1219,-1.1225,-1.1228,-1.1233,-1.1195,-1.1195,-1.1196,0,-1.342,-1.3225,-1.3027,-1.2908,-1.2798,-1.2599,-1.2507,-1.2376,-1.2118,-1.2046,-1.1999,-1.1673,-1.1517,-1.1349,-1.1353,-1.1274,-1.1241,-1.1227,-1.1234,-1.1238,-1.1241,-1.1241,-1.1244,-1.1206,-1.1204,-1.1203,-1.1202,0,-1.3387,-1.3254,-1.321,-1.2965,-1.2849,-1.2746,-1.2529,-1.2435,-1.2315,-1.2167,-1.201,-1.1815,-1.1618,-1.1568,-1.145,-1.1382,-1.136,-1.1278,-1.1197,-1.1264,-1.1261,-1.1259,-1.122,-1.1217,-1.1213,-1.1211,0,0,-1.3605,-1.3249,-1.3236,-1.312,-1.2861,-1.2753,-1.2637,-1.2444,-1.2366,-1.2194,-1.2089,-1.1876,-1.1796,-1.1675,-1.1538,-1.1479,-1.15,-1.1401,-1.1393,-1.1425,-1.1409,-1.1473,-1.1477,-1.1421,-1.142,-1.1419,-1.1426,0,-1.3643,-1.3428,-1.3244,-1.3096,-1.2968,-1.2774,-1.2672,-1.2501,-1.2358,-1.2226,-1.2067,-1.1919,-1.1826,-1.1751,-1.1683,-1.1513,-1.1494,-1.1509,-1.1319,-1.1315,-1.1378,-1.1475,-1.1543,-1.156,-1.1424,-1.1423,-1.1423,0,-1.3661,-1.3495,-1.3334,-1.3083,-1.3022,-1.2935,-1.274,-1.2618,-1.2417,-1.2316,-1.2179,-1.2035,-1.19,-1.1833,-1.1643,-1.1658,-1.1568,-1.1471,-1.1467,-1.1442,-1.1374,-1.1452,-1.156,-1.1563,-1.142,-1.142,-1.142,0,-1.3834,-1.357,-1.3438,-1.3345,-1.305,-1.2992,-1.2866,-1.2664,-1.2557,-1.2386,-1.2314,-1.213,-1.2029,-1.1888,-1.1696,-1.1666,-1.1525,-1.1443,-1.1435,-1.144,-1.1415,-1.1419,-1.151,-1.136,-1.136,-1.136,-1.136,0,-1.3896,-1.3804,-1.3511,-1.3431,-1.3321,-1.3108,-1.3004,-1.2861,-1.2681,-1.2567,-1.2387,-1.2283,-1.2036,-1.1902,-1.175,-1.1614,-1.157,-1.1483,-1.1444,-1.1499,-1.151,-1.1437,-1.1431,-1.136,-1.136,-1.136,-1.136,0,-1.4072,-1.3872,-1.3715,-1.3447,-1.3377,-1.3308,-1.3076,-1.2988,-1.2834,-1.2691,-1.2645,-1.2401,-1.2233,-1.2027,-1.1793,-1.169,-1.1568,-1.1509,-1.1637,-1.1614,-1.1617,-1.1619,-1.1664,-1.1658,-1.1515,-1.1517,-1.1518,0,-1.4125,-1.4049,-1.3772,-1.3683,-1.3562,-1.342,-1.331,-1.3095,-1.2988,-1.275,-1.2691,-1.2508,-1.2351,-1.209,-1.1891,-1.1709,-1.1644,-1.1672,-1.1616,-1.1672,-1.1642,-1.1649,-1.1639,-1.1688,-1.169,-1.1692,-1.1694,0,-1.4239,-1.4142,-1.3992,-1.3805,-1.3678,-1.352,-1.3355,-1.3291,-1.3042,-1.2929,-1.2754,-1.2633,-1.2391,-1.2211,-1.2003,-1.1869,-1.174,-1.1713,-1.1701,-1.1757,-1.1833,-1.1789,-1.1676,-1.1713,-1.1711,-1.171,-1.1709,-1.1708,-1.4352,-1.4275,-1.4067,-1.3903,-1.3756,-1.3604,-1.3507,-1.3339,-1.319,-1.2977,-1.2858,-1.2686,-1.2481,-1.2188,-1.2059,-1.1919,-1.1873,-1.1857,-1.1852,-1.1851,-1.1867,-1.1855,-1.1881,-1.188,-1.1879,-1.1878,-1.1878,0,-1.4456,-1.4311,-1.4163,-1.3936,-1.3806,-1.3694,-1.3503,-1.3402,-1.3253,-1.3073,-1.2921,-1.2718,-1.2541,-1.2326,-1.2134,-1.2063,-1.1999,-1.202,-1.2023,-1.1994,-1.1921,-1.1949,-1.2076,-1.2076,-1.2076,-1.2076,-1.2075,-1.2075,-1.4495,-1.4357,-1.4235,-1.402,-1.3874,-1.3705,-1.3605,-1.3462,-1.3317,-1.3099,-1.2951,-1.2812,-1.2616,-1.2408,-1.2239,-1.218,-1.2117,-1.2157,-1.208,-1.2017,-1.1999,-1.1983,-1.2009,-1.2145,-1.2145,-1.2164,-1.2164,-1.2164]},{"header":{"parameterUnit":"m.s-1","parameterCategory":1,"la1":30.2991,"la2":30.254,"lo1":-89.0895,"lo2":-89.0444,"dy":0.0017,"dx":0.0017,"nx":28,"ny":28,"refTime":"2025-05-26T09:00:00:Z","depth":0,"parameterNumber":3,"parameterNumberName":"V-component_of_WINDS"},"data":[0,0,0,0,0,0,0,0,0,0,0,0,0,0,0,0,0,0,0,0,0,0,0,0,0,0,0,0,0,0,0,0,0,0,0,0,0,0,0,0,0,0,0,0,0,0,0,0,0,0,0,0,0,0,0,0,0,0,3.115,3.115,0,3.1136,3.1136,3.1135,3.1148,3.1149,3.1149,3.115,3.113,3.1129,3.1128,0,0,0,0,0,0,0,0,0,0,0,0,0,3.1185,3.1184,3.115,3.115,3.115,3.1136,3.1136,3.1135,3.1148,3.1149,3.1149,3.115,3.1131,3.113,3.1128,0,0,0,0,0,0,0,0,0,0,0,0,0,3.117,3.1184,3.115,3.1155,3.1155,3.1136,3.1136,3.1135,3.1148,3.1149,3.1149,3.115,3.1131,3.113,3.1128,3.1103,0,0,3.1124,3.1123,0,0,0,0,0,0,0,0,3.1171,3.1169,3.1154,3.1154,3.1154,3.1145,3.1141,3.1124,3.1148,3.115,3.115,3.115,3.1134,3.1133,3.1128,3.1102,3.1101,3.1123,3.1123,3.1122,3.1121,0,0,0,0,0,0,0,3.1172,3.1169,3.1144,3.1154,3.1154,3.1156,3.1155,3.1138,3.1138,3.115,3.1151,3.1149,3.1134,3.1129,3.1128,3.1101,3.1124,3.1122,3.1121,3.1121,3.1051,3.1051,0,0,0,0,0,0,3.1173,3.117,3.1145,3.1144,3.1165,3.1155,3.1153,3.1147,3.1138,3.1138,3.1149,3.115,3.1132,3.1129,3.1127,3.1095,3.1122,3.1121,3.112,3.1052,3.1051,3.105,0,0,0,0,0,0,3.1174,3.1171,3.1145,3.1157,3.1154,3.1153,3.1146,3.1146,3.1141,3.1137,3.1137,3.1144,3.1132,3.1129,3.1109,3.1094,3.112,3.1118,3.1053,3.1052,3.1051,3.1031,0,0,0,0,0,0,3.1175,3.1171,3.1162,3.1157,3.1154,3.1129,3.1145,3.1145,3.1139,3.114,3.1132,3.1132,3.1132,3.1111,3.1107,3.1093,3.1117,3.1055,3.1053,3.1051,3.1033,3.103,3.1026,0,0,0,0,0,3.1176,3.1157,3.1162,3.1158,3.1143,3.1128,3.1126,3.1128,3.1138,3.1128,3.1125,3.1132,3.1097,3.1109,3.1105,3.1089,3.1055,3.1053,3.1051,3.1035,3.103,3.1026,0,0,0,0,0,0,3.1159,3.1156,3.1161,3.1141,3.1134,3.113,3.1118,3.1124,3.1114,3.1115,3.1118,3.1116,3.1094,3.109,3.1103,3.1064,3.1078,3.1075,3.1066,3.1062,3.1059,3.1059,3.1116,0,0,0,0,0,3.1153,3.1142,3.114,3.1122,3.1118,3.1119,3.1112,3.1115,3.1108,3.1105,3.1101,3.1093,3.108,3.1071,3.1059,3.1034,3.1031,3.1021,3.1018,3.1015,3.1011,3.0995,3.099,3.1043,3.1043,3.1043,0,0,3.114,3.1137,3.113,3.1118,3.1114,3.1101,3.1116,3.1102,3.1092,3.1103,3.1083,3.108,3.1071,3.1047,3.1036,3.1043,3.0996,3.1012,3.101,3.1008,3.0992,3.0987,3.0983,3.1042,3.1042,3.1042,0,0,3.1109,3.1107,3.1091,3.1086,3.108,3.108,3.1076,3.1071,3.1069,3.105,3.1057,3.1045,3.1023,3.1016,3.1009,3.0976,3.098,3.0972,3.0953,3.0937,3.0933,3.0929,3.0914,3.0909,3.0969,3.0969,3.0969,0,3.1093,3.1075,3.1081,3.1066,3.106,3.1071,3.1053,3.1048,3.1037,3.1032,3.104,3.1013,3.1008,3.0981,3.0973,3.0968,3.0962,3.0972,3.0933,3.0929,3.0926,3.0912,3.0907,3.0968,3.0968,3.0968,3.0968,0,3.1055,3.1042,3.103,3.102,3.1013,3.0996,3.0998,3.099,3.0994,3.0993,3.0972,3.0966,3.0952,3.0947,3.095,3.092,3.0924,3.0933,3.0947,3.092,3.0906,3.0901,3.0966,3.0967,3.0967,3.0967,0,0,3.1011,3.1005,3.1,3.0995,3.0989,3.0979,3.0963,3.0951,3.0942,3.0935,3.0919,3.0901,3.0909,3.0901,3.0904,3.0891,3.0861,3.09,3.09,3.0891,3.0825,3.0816,3.081,3.0865,3.0865,3.0864,3.0825,0,3.0977,3.095,3.0955,3.0928,3.0915,3.0925,3.0911,3.0905,3.0904,3.0891,3.089,3.0876,3.0888,3.0884,3.0871,3.0867,3.0847,3.0871,3.0848,3.0847,3.0847,3.0804,3.0794,3.0758,3.082,3.0819,3.0818,0,3.0935,3.0927,3.0898,3.0893,3.0888,3.0875,3.0864,3.0853,3.0845,3.0845,3.0837,3.0842,3.0824,3.084,3.0814,3.0829,3.0821,3.0818,3.0816,3.0811,3.0829,3.0795,3.0746,3.074,3.0811,3.0811,3.0812,0,3.0902,3.0884,3.0864,3.086,3.0855,3.0845,3.0842,3.0836,3.0828,3.0817,3.0812,3.0799,3.0792,3.0781,3.0782,3.0794,3.0754,3.0771,3.075,3.075,3.0739,3.0739,3.0685,3.0739,3.0739,3.0739,3.0739,0,3.0863,3.0844,3.0849,3.0837,3.0816,3.0822,3.08,3.0798,3.0793,3.0778,3.0787,3.0773,3.0777,3.0762,3.0763,3.0739,3.0736,3.0734,3.0733,3.0731,3.0731,3.0723,3.0724,3.0737,3.0738,3.0738,3.0738,0,3.0821,3.0824,3.0803,3.08,3.0799,3.0783,3.0779,3.0767,3.0767,3.0749,3.0745,3.0744,3.0728,3.0728,3.0709,3.071,3.0679,3.0684,3.0682,3.0682,3.066,3.0661,3.0597,3.0587,3.065,3.065,3.0649,0,3.0794,3.078,3.0776,3.0768,3.0764,3.0751,3.0743,3.0748,3.0739,3.073,3.0717,3.0702,3.069,3.0663,3.0659,3.0645,3.0646,3.0625,3.0644,3.0641,3.0642,3.0641,3.0639,3.062,3.062,3.0619,3.0619,0,3.0745,3.0747,3.0736,3.0725,3.0716,3.0708,3.07,3.0692,3.0696,3.0686,3.067,3.066,3.0642,3.0625,3.0611,3.0606,3.0611,3.0613,3.0607,3.0603,3.0601,3.0598,3.0668,3.0614,3.0614,3.0615,3.0615,3.0615,3.0707,3.0695,3.069,3.0676,3.0672,3.0664,3.0651,3.0651,3.0638,3.0623,3.0628,3.0609,3.06,3.0582,3.0576,3.056,3.0567,3.0559,3.0556,3.0553,3.0549,3.0607,3.0558,3.0558,3.0558,3.0558,3.0558,0,3.0656,3.0653,3.0642,3.0631,3.062,3.063,3.0621,3.0611,3.0595,3.0588,3.0576,3.0556,3.054,3.0536,3.052,3.0508,3.051,3.0503,3.0502,3.05,3.0545,3.0551,3.0502,3.0502,3.0502,3.0502,3.0502,3.0502,3.0627,3.0606,3.0608,3.0583,3.058,3.0563,3.0557,3.0549,3.0543,3.0521,3.0509,3.0507,3.05,3.0484,3.0469,3.0468,3.046,3.0452,3.0451,3.0492,3.0498,3.0503,3.0508,3.0451,3.0451,3.0407,3.0407,3.0407]}]]